Powrót do katalogu

IRIDIUM 33 DEB

AktywnyPO
NORAD 34492·DEBRIS·🇺🇸 United States

Wystrzelony Sep 14, 1997 z Baikonur Cosmodrome

Loading…

Następne Przeloty (najbliższe 24 godziny)

TLE

ŚwieżeSource: Space-Track

Epoka: Sep 14, 2026, 09:10 UTC

1 34492U 97051GH  26257.38211053  .00009370  00000-0  30185-2 0  9997
2 34492  86.4706 222.7281 0181115  68.1738  83.0866 14.30203169889936

Śledź IRIDIUM 33 DEB w czasie rzeczywistym z AllMySat

Download on the App Store